Location: Cantaing
(50.1487°N, 3.1675°E)
Time: 21:35:21
(UTC+00:00)

Envisat - Visible Passes

Search period start: 08 March 2026 00:00
Search period end: 18 March 2026 00:00
Orbit: 761 x 763 km, 98.4° (Epoch: 8 March)

Date Brightness Start Highest point End Pass type
(mag) Time Alt. Az. Time Alt. Az. Time Alt. Az.
8 Mar 4.8 02:12:48 10° NNE 02:15:21 28° NE 02:15:21 28° NE visible
8 Mar 4.3 03:52:14 10° N 03:55:29 25° NW 03:55:29 25° NW visible
9 Mar 5.4 01:35:29 10° NE 01:37:13 18° NE 01:37:13 18° NE visible
9 Mar 3.9 03:14:00 10° N 03:17:21 37° NNW 03:17:21 37° NNW visible
9 Mar 5.1 04:56:24 10° NW 04:56:43 10° NW 04:57:02 10° NW visible
10 Mar 4.2 02:36:04 10° NNE 02:39:14 39° NNE 02:39:14 39° NNE visible
10 Mar 4.6 04:16:05 10° NNW 04:19:22 19° NW 04:19:22 19° NW visible
11 Mar 4.9 01:58:28 10° NNE 02:01:06 27° NE 02:01:06 27° NE visible
11 Mar 4.0 03:37:34 10° N 03:41:14 32° NW 03:41:14 32° NW visible
12 Mar 5.5 01:21:24 10° NE 01:22:59 16° ENE 01:22:59 16° ENE visible
12 Mar 3.7 02:59:27 10° N 03:03:07 46° N 03:03:07 46° N visible
12 Mar 4.9 04:40:18 10° NNW 04:42:30 13° NW 04:43:15 12° WNW visible
13 Mar 4.2 02:21:38 10° NNE 02:24:59 40° NE 02:24:59 40° NE visible
13 Mar 4.3 04:01:17 10° N 04:05:07 23° WNW 04:05:07 23° WNW visible
14 Mar 5.0 01:44:11 10° NNE 01:46:52 24° ENE 01:46:52 24° ENE visible
14 Mar 3.6 03:22:56 10° N 03:27:00 40° NW 03:27:00 40° NW visible
15 Mar 5.7 01:07:33 10° NE 01:08:44 13° ENE 01:08:44 13° ENE visible
15 Mar 3.5 02:44:57 10° NNE 02:48:52 54° N 02:48:52 54° N visible
15 Mar 4.6 04:25:14 10° NNW 04:28:16 16° NW 04:29:00 16° WNW visible
16 Mar 4.3 02:07:15 10° NNE 02:10:45 37° NE 02:10:45 37° NE visible
16 Mar 4.0 03:46:34 10° N 03:50:53 29° WNW 03:50:53 29° WNW visible
17 Mar 5.2 01:30:02 10° NE 01:32:37 21° ENE 01:32:37 21° ENE visible
17 Mar 3.3 03:08:23 10° N 03:12:45 53° NW 03:12:45 53° NW visible
17 Mar 5.0 04:49:51 10° NNW 04:51:13 11° NW 04:52:36 10° WNW visible
